SHT9K EGPH-EGLL

Flight info

Callsign SHT9K
Flight time 1h 5m
Altitude 25000
Route DCT GOSAM DCT FENIK L612 ELBUS/N0435F330 UL612 LAKEY DCT NUGRA NUGRA2H
Aircraft A20N/M-SDGHIJ1LRWXY/SB1

Departure

Time 2026-04-23 12:46
Airport Edinburgh Airport (EGPH)

Arrival

Time 2026-04-23 13:52
Airport London Heathrow Airport (EGLL)
Time Latitude Longitude Altitude Speed Heading
2026-04-23 12:24 55.94855 -3.36605 116 ft 0 kts 145°
2026-04-23 12:37 55.94857 -3.36607 116 ft 1 kts 146°
2026-04-23 12:37 55.94871 -3.36624 114 ft 3 kts 151°
2026-04-23 12:37 55.94888 -3.36640 115 ft 3 kts 160°
2026-04-23 12:38 55.94907 -3.36650 116 ft 3 kts 176°
2026-04-23 12:38 55.94925 -3.36648 119 ft 3 kts 213°
2026-04-23 12:38 55.94933 -3.36635 114 ft 1 kts 239°
2026-04-23 12:38 55.94935 -3.36631 114 ft 0 kts 239°
2026-04-23 12:41 55.94930 -3.36646 115 ft 2 kts 239°
2026-04-23 12:41 55.94914 -3.36692 116 ft 9 kts 239°
2026-04-23 12:41 55.94914 -3.36799 115 ft 8 kts 288°
2026-04-23 12:42 55.94919 -3.36897 119 ft 7 kts 252°
2026-04-23 12:42 55.94896 -3.36976 114 ft 7 kts 241°
2026-04-23 12:42 55.94871 -3.37054 117 ft 7 kts 238°
2026-04-23 12:42 55.94845 -3.37129 115 ft 7 kts 238°
2026-04-23 12:43 55.94820 -3.37204 116 ft 7 kts 238°
2026-04-23 12:43 55.94774 -3.37336 116 ft 19 kts 238°
2026-04-23 12:43 55.94704 -3.37542 118 ft 19 kts 238°
2026-04-23 12:43 55.94636 -3.37747 114 ft 19 kts 239°
2026-04-23 12:44 55.94569 -3.37947 117 ft 19 kts 237°
2026-04-23 12:44 55.94503 -3.38141 119 ft 19 kts 239°
2026-04-23 12:44 55.94436 -3.38338 118 ft 18 kts 239°
2026-04-23 12:44 55.94370 -3.38534 117 ft 19 kts 239°
2026-04-23 12:45 55.94302 -3.38736 116 ft 19 kts 239°
2026-04-23 12:45 55.94333 -3.38914 119 ft 16 kts 332°
2026-04-23 12:45 55.94428 -3.38923 116 ft 13 kts 45°
2026-04-23 12:45 55.94512 -3.38688 114 ft 52 kts 58°
2026-04-23 12:46 55.94843 -3.37714 115 ft 134 kts 58°
2026-04-23 12:46 55.95401 -3.36039 533 ft 165 kts 59°
2026-04-23 12:46 55.96009 -3.34343 1575 ft 164 kts 52°
2026-04-23 12:46 55.96891 -3.32788 2186 ft 197 kts 43°
2026-04-23 12:47 55.98070 -3.31120 2578 ft 235 kts 38°
2026-04-23 12:47 55.99462 -3.29380 3255 ft 255 kts 30°
2026-04-23 12:47 56.01191 -3.28522 4110 ft 266 kts 358°
2026-04-23 12:47 56.02952 -3.29546 5036 ft 270 kts 323°
2026-04-23 12:48 56.04111 -3.32105 5687 ft 268 kts 290°
2026-04-23 12:48 56.04312 -3.35312 5964 ft 264 kts 257°
2026-04-23 12:48 56.03529 -3.38225 5993 ft 261 kts 232°
2026-04-23 12:48 56.02588 -3.41014 6013 ft 264 kts 248°
2026-04-23 12:49 56.02000 -3.44128 6238 ft 265 kts 250°
2026-04-23 12:49 56.01474 -3.47304 6477 ft 267 kts 252°
2026-04-23 12:49 56.01010 -3.50336 6533 ft 267 kts 253°
2026-04-23 12:49 56.00535 -3.53542 6532 ft 267 kts 253°
2026-04-23 12:50 56.00065 -3.56757 6528 ft 267 kts 253°
2026-04-23 12:50 55.99594 -3.59972 6535 ft 267 kts 253°
2026-04-23 12:50 55.99124 -3.63178 6534 ft 267 kts 253°
2026-04-23 12:50 55.98652 -3.66391 6525 ft 267 kts 253°
2026-04-23 12:51 55.98180 -3.69604 6528 ft 267 kts 253°
2026-04-23 12:51 55.97708 -3.72811 6530 ft 267 kts 253°
2026-04-23 12:51 55.97234 -3.76019 6527 ft 267 kts 253°
2026-04-23 12:51 55.96758 -3.79228 6519 ft 267 kts 253°
2026-04-23 12:52 55.96289 -3.82396 6519 ft 267 kts 253°
2026-04-23 12:52 55.95812 -3.85606 6513 ft 267 kts 253°
2026-04-23 12:52 55.95335 -3.88813 6520 ft 267 kts 253°
2026-04-23 12:52 55.94857 -3.92019 6517 ft 267 kts 253°
2026-04-23 12:53 55.94376 -3.95229 6513 ft 267 kts 252°
2026-04-23 12:53 55.94008 -3.97319 6516 ft 266 kts 249°
2026-04-23 12:53 55.93264 -4.00338 6518 ft 264 kts 240°
2026-04-23 12:53 55.92276 -4.03087 6509 ft 263 kts 231°
2026-04-23 12:54 55.91055 -4.05518 6510 ft 263 kts 222°
2026-04-23 12:54 55.89639 -4.07565 6509 ft 263 kts 215°
2026-04-23 12:54 55.88113 -4.09385 6756 ft 265 kts 213°
2026-04-23 12:54 55.86554 -4.11179 7604 ft 267 kts 212°
2026-04-23 12:55 55.85016 -4.12948 8674 ft 267 kts 212°
2026-04-23 12:55 55.83446 -4.14759 9663 ft 270 kts 212°
2026-04-23 12:55 55.81857 -4.16595 10595 ft 274 kts 212°
2026-04-23 12:55 55.80206 -4.18504 11106 ft 294 kts 212°
2026-04-23 12:56 55.78417 -4.20603 11461 ft 318 kts 213°
2026-04-23 12:56 55.76551 -4.22873 12099 ft 329 kts 214°
2026-04-23 12:56 55.74624 -4.25049 12866 ft 336 kts 206°
2026-04-23 12:56 55.72404 -4.26500 13622 ft 344 kts 191°
2026-04-23 12:57 55.70017 -4.26670 14503 ft 346 kts 172°
2026-04-23 12:57 55.67708 -4.25517 15332 ft 348 kts 159°
2026-04-23 12:57 55.65489 -4.23753 16155 ft 353 kts 154°
2026-04-23 12:57 55.63311 -4.21663 16858 ft 359 kts 150°
2026-04-23 12:58 55.61137 -4.19414 17566 ft 365 kts 149°
2026-04-23 12:58 55.58932 -4.17100 18264 ft 371 kts 149°
2026-04-23 12:58 55.56685 -4.14771 18924 ft 377 kts 150°
2026-04-23 12:58 55.54400 -4.12453 19586 ft 380 kts 150°
2026-04-23 12:59 55.52088 -4.10151 20311 ft 381 kts 151°
2026-04-23 12:59 55.49791 -4.07897 20976 ft 384 kts 151°
2026-04-23 12:59 55.47428 -4.05598 21556 ft 390 kts 151°
2026-04-23 12:59 55.45040 -4.03284 22213 ft 393 kts 151°
2026-04-23 13:00 55.42635 -4.00958 22911 ft 394 kts 151°
2026-04-23 13:00 55.40224 -3.98628 23610 ft 396 kts 151°
2026-04-23 13:00 55.37799 -3.96287 24209 ft 399 kts 151°
2026-04-23 13:00 55.35343 -3.93904 24540 ft 406 kts 151°
2026-04-23 13:01 55.32860 -3.91505 25051 ft 408 kts 151°
2026-04-23 13:01 55.30358 -3.89099 25399 ft 411 kts 151°
2026-04-23 13:01 55.27838 -3.86681 25486 ft 412 kts 151°
2026-04-23 13:01 55.25346 -3.84293 25489 ft 415 kts 151°
2026-04-23 13:02 55.22809 -3.81864 25491 ft 416 kts 151°
2026-04-23 13:02 55.20266 -3.79430 25494 ft 416 kts 152°
2026-04-23 13:02 55.17725 -3.77003 25491 ft 415 kts 152°
2026-04-23 13:02 55.15187 -3.74580 25493 ft 415 kts 152°
2026-04-23 13:03 55.12652 -3.72164 25495 ft 415 kts 152°
2026-04-23 13:03 55.10112 -3.69745 25496 ft 415 kts 152°
2026-04-23 13:03 55.07568 -3.67328 25496 ft 415 kts 152°
2026-04-23 13:03 55.05057 -3.64944 25499 ft 415 kts 152°
2026-04-23 13:04 55.02516 -3.62535 25495 ft 414 kts 152°
2026-04-23 13:04 54.99978 -3.60135 25495 ft 414 kts 152°
2026-04-23 13:04 54.97446 -3.57743 25496 ft 414 kts 152°
2026-04-23 13:04 54.94910 -3.55351 25496 ft 415 kts 152°
2026-04-23 13:05 54.92369 -3.52957 25492 ft 414 kts 152°
2026-04-23 13:05 54.89857 -3.50594 25493 ft 415 kts 152°
2026-04-23 13:05 54.87315 -3.48205 25498 ft 415 kts 152°
2026-04-23 13:05 54.84779 -3.45827 25488 ft 414 kts 152°
2026-04-23 13:06 54.79709 -3.41081 25486 ft 415 kts 152°
2026-04-23 13:06 54.77171 -3.38711 25484 ft 415 kts 152°
2026-04-23 13:06 54.74630 -3.36341 25485 ft 414 kts 152°
2026-04-23 13:07 54.72082 -3.34004 25487 ft 414 kts 153°
2026-04-23 13:07 54.69481 -3.31855 25480 ft 415 kts 155°
2026-04-23 13:07 54.66838 -3.29836 25483 ft 416 kts 156°
2026-04-23 13:07 54.64165 -3.27869 25486 ft 416 kts 157°
2026-04-23 13:08 54.61494 -3.25924 25484 ft 416 kts 157°
2026-04-23 13:08 54.58824 -3.23976 25482 ft 416 kts 157°
2026-04-23 13:08 54.56164 -3.22020 25485 ft 416 kts 156°
2026-04-23 13:08 54.53527 -3.20070 25483 ft 420 kts 156°
2026-04-23 13:09 54.50839 -3.18074 25475 ft 421 kts 156°
2026-04-23 13:09 54.48141 -3.16066 25481 ft 421 kts 156°
2026-04-23 13:09 54.45446 -3.14060 25478 ft 422 kts 155°
2026-04-23 13:09 54.42747 -3.12053 25481 ft 422 kts 156°
2026-04-23 13:10 54.40054 -3.10055 25477 ft 421 kts 156°
2026-04-23 13:10 54.37354 -3.08055 25478 ft 422 kts 156°
2026-04-23 13:10 54.34658 -3.06061 25475 ft 423 kts 156°
2026-04-23 13:10 54.31985 -3.04087 25479 ft 423 kts 156°
2026-04-23 13:11 54.29285 -3.02096 25476 ft 422 kts 156°
2026-04-23 13:11 54.26581 -3.00106 25476 ft 423 kts 156°
2026-04-23 13:11 54.23861 -2.98157 25476 ft 424 kts 158°
2026-04-23 13:11 54.21081 -2.96464 25476 ft 424 kts 161°
2026-04-23 13:12 54.18286 -2.94857 25478 ft 424 kts 160°
2026-04-23 13:12 54.15486 -2.93261 25475 ft 425 kts 161°
2026-04-23 13:12 54.12682 -2.91660 25476 ft 424 kts 161°
2026-04-23 13:12 54.09883 -2.90061 25477 ft 423 kts 161°
2026-04-23 13:13 54.07088 -2.88463 25477 ft 425 kts 161°
2026-04-23 13:13 54.04272 -2.86854 25475 ft 425 kts 161°
2026-04-23 13:13 54.01478 -2.85259 25478 ft 425 kts 160°
2026-04-23 13:13 53.98689 -2.83668 25475 ft 426 kts 161°
2026-04-23 13:14 53.95880 -2.82068 25468 ft 425 kts 161°
2026-04-23 13:14 53.93066 -2.80468 25473 ft 425 kts 160°
2026-04-23 13:14 53.90253 -2.78870 25467 ft 425 kts 161°
2026-04-23 13:14 53.87443 -2.77276 25466 ft 425 kts 160°
2026-04-23 13:15 53.84673 -2.75708 25466 ft 425 kts 160°
2026-04-23 13:15 53.81827 -2.74099 25469 ft 426 kts 160°
2026-04-23 13:15 53.79057 -2.72533 25468 ft 426 kts 161°
2026-04-23 13:15 53.76248 -2.70948 25472 ft 426 kts 160°
2026-04-23 13:16 53.73426 -2.69359 25472 ft 427 kts 161°
2026-04-23 13:16 53.70612 -2.67776 25471 ft 426 kts 160°
2026-04-23 13:16 53.67797 -2.66195 25469 ft 427 kts 160°
2026-04-23 13:16 53.64976 -2.64612 25466 ft 426 kts 161°
2026-04-23 13:17 53.62165 -2.63038 25464 ft 426 kts 160°
2026-04-23 13:17 53.59350 -2.61463 25469 ft 426 kts 160°
2026-04-23 13:17 53.56524 -2.59885 25468 ft 427 kts 161°
2026-04-23 13:17 53.53700 -2.58310 25474 ft 427 kts 160°
2026-04-23 13:18 53.50878 -2.56738 25466 ft 428 kts 160°
2026-04-23 13:18 53.48076 -2.55180 25464 ft 429 kts 160°
2026-04-23 13:18 53.45240 -2.53605 25466 ft 429 kts 160°
2026-04-23 13:18 53.42410 -2.52036 25478 ft 429 kts 160°
2026-04-23 13:19 53.39577 -2.50467 25478 ft 428 kts 160°
2026-04-23 13:19 53.36741 -2.48899 25479 ft 428 kts 161°
2026-04-23 13:19 53.33908 -2.47334 25479 ft 428 kts 161°
2026-04-23 13:19 53.31071 -2.45769 25478 ft 428 kts 160°
2026-04-23 13:20 53.28237 -2.44209 25481 ft 429 kts 160°
2026-04-23 13:20 53.25400 -2.42649 25478 ft 429 kts 160°
2026-04-23 13:20 53.22561 -2.41089 25479 ft 429 kts 160°
2026-04-23 13:20 53.19726 -2.39535 25479 ft 429 kts 161°
2026-04-23 13:21 53.16889 -2.37981 25477 ft 429 kts 160°
2026-04-23 13:21 53.14091 -2.36450 25478 ft 429 kts 161°
2026-04-23 13:21 53.11250 -2.34898 25473 ft 429 kts 160°
2026-04-23 13:21 53.08412 -2.33351 25472 ft 429 kts 160°
2026-04-23 13:22 53.05563 -2.31799 25470 ft 429 kts 160°
2026-04-23 13:22 53.02784 -2.30000 25463 ft 428 kts 151°
2026-04-23 13:22 53.00198 -2.27541 25465 ft 427 kts 146°
2026-04-23 13:22 52.97684 -2.24911 25467 ft 427 kts 146°
2026-04-23 13:23 52.95179 -2.22260 25471 ft 427 kts 146°
2026-04-23 13:23 52.92670 -2.19611 25467 ft 427 kts 146°
2026-04-23 13:23 52.90155 -2.16967 25469 ft 428 kts 146°
2026-04-23 13:23 52.87674 -2.14368 25469 ft 427 kts 146°
2026-04-23 13:24 52.85160 -2.11741 25469 ft 427 kts 146°
2026-04-23 13:24 52.82642 -2.09116 25465 ft 427 kts 146°
2026-04-23 13:24 52.80126 -2.06497 25464 ft 428 kts 146°
2026-04-23 13:24 52.77610 -2.03882 25464 ft 427 kts 146°
2026-04-23 13:25 52.75086 -2.01262 25467 ft 428 kts 146°
2026-04-23 13:25 52.72559 -1.98643 25469 ft 428 kts 146°
2026-04-23 13:25 52.70033 -1.96029 25467 ft 428 kts 146°
2026-04-23 13:25 52.67537 -1.93450 25469 ft 428 kts 146°
2026-04-23 13:26 52.65010 -1.90842 25466 ft 428 kts 146°
2026-04-23 13:26 52.62485 -1.88239 25468 ft 428 kts 146°
2026-04-23 13:26 52.59953 -1.85634 25478 ft 428 kts 146°
2026-04-23 13:26 52.57424 -1.83034 25455 ft 428 kts 146°
2026-04-23 13:27 52.54893 -1.80438 25456 ft 428 kts 146°
2026-04-23 13:27 52.52362 -1.77844 25454 ft 428 kts 146°
2026-04-23 13:27 52.49826 -1.75247 25457 ft 428 kts 146°
2026-04-23 13:27 52.47321 -1.72688 25454 ft 429 kts 146°
2026-04-23 13:28 52.44783 -1.70097 25457 ft 429 kts 146°
2026-04-23 13:28 52.42246 -1.67512 25455 ft 429 kts 146°
2026-04-23 13:28 52.39703 -1.64923 25454 ft 429 kts 146°
2026-04-23 13:28 52.37169 -1.62348 25454 ft 429 kts 146°
2026-04-23 13:29 52.34630 -1.59770 25453 ft 429 kts 146°
2026-04-23 13:29 52.32087 -1.57192 25456 ft 429 kts 146°
2026-04-23 13:29 52.29584 -1.54658 25499 ft 429 kts 146°
2026-04-23 13:29 52.27040 -1.52086 25509 ft 429 kts 146°
2026-04-23 13:30 52.24496 -1.49519 25507 ft 430 kts 146°
2026-04-23 13:30 52.21982 -1.46898 25515 ft 428 kts 142°
2026-04-23 13:30 52.19655 -1.43897 25509 ft 424 kts 138°
2026-04-23 13:30 52.17408 -1.40771 25498 ft 423 kts 137°
2026-04-23 13:31 52.15180 -1.37640 25230 ft 422 kts 137°
2026-04-23 13:31 52.12966 -1.34535 24620 ft 417 kts 137°
2026-04-23 13:31 52.10785 -1.31487 23885 ft 411 kts 137°
2026-04-23 13:31 52.08659 -1.28523 23072 ft 405 kts 137°
2026-04-23 13:32 52.06536 -1.25571 22264 ft 399 kts 137°
2026-04-23 13:32 52.04446 -1.22669 21485 ft 393 kts 137°
2026-04-23 13:32 52.02382 -1.19808 20671 ft 386 kts 136°
2026-04-23 13:32 52.00348 -1.16992 19919 ft 380 kts 137°
2026-04-23 13:33 51.98340 -1.14213 18990 ft 379 kts 137°
2026-04-23 13:33 51.96333 -1.11439 17948 ft 379 kts 137°
2026-04-23 13:33 51.94323 -1.08665 16895 ft 377 kts 137°
2026-04-23 13:33 51.92328 -1.05917 15884 ft 375 kts 137°
2026-04-23 13:34 51.90343 -1.03185 14906 ft 373 kts 137°
2026-04-23 13:34 51.88377 -1.00484 13916 ft 369 kts 137°
2026-04-23 13:34 51.86424 -0.97801 12872 ft 366 kts 137°
2026-04-23 13:34 51.84787 -0.94729 11864 ft 359 kts 120°
2026-04-23 13:35 51.83627 -0.91180 10899 ft 355 kts 115°
2026-04-23 13:35 51.82566 -0.87598 9916 ft 352 kts 115°
2026-04-23 13:35 51.81519 -0.84063 9063 ft 343 kts 115°
2026-04-23 13:35 51.80504 -0.80684 8603 ft 324 kts 115°
2026-04-23 13:36 51.79562 -0.77576 8462 ft 298 kts 115°
2026-04-23 13:36 51.78688 -0.74706 8453 ft 271 kts 115°
2026-04-23 13:36 51.77886 -0.72085 8452 ft 251 kts 115°
2026-04-23 13:36 51.77139 -0.69647 8477 ft 234 kts 115°
2026-04-23 13:37 51.76425 -0.67319 8461 ft 232 kts 115°
2026-04-23 13:37 51.75707 -0.64979 8445 ft 233 kts 115°
2026-04-23 13:37 51.74797 -0.62813 8347 ft 236 kts 135°
2026-04-23 13:37 51.73424 -0.61330 7918 ft 239 kts 149°
2026-04-23 13:38 51.71946 -0.60097 7535 ft 238 kts 150°
2026-04-23 13:38 51.70462 -0.58907 7437 ft 238 kts 150°
2026-04-23 13:38 51.68981 -0.57748 7431 ft 236 kts 150°
2026-04-23 13:38 51.67508 -0.56585 7428 ft 236 kts 151°
2026-04-23 13:39 51.66528 -0.55803 7429 ft 237 kts 150°
2026-04-23 13:39 51.64573 -0.54237 7433 ft 237 kts 150°
2026-04-23 13:39 51.63097 -0.53050 7433 ft 237 kts 150°
2026-04-23 13:39 51.61618 -0.51858 7427 ft 238 kts 151°
2026-04-23 13:40 51.60565 -0.51253 7425 ft 241 kts 167°
2026-04-23 13:40 51.58917 -0.51495 7430 ft 248 kts 197°
2026-04-23 13:40 51.57497 -0.53090 7333 ft 254 kts 226°
2026-04-23 13:40 51.56696 -0.55633 7111 ft 259 kts 253°
2026-04-23 13:41 51.56354 -0.58471 6981 ft 260 kts 259°
2026-04-23 13:41 51.56094 -0.61350 6965 ft 260 kts 261°
2026-04-23 13:41 51.55836 -0.64216 6767 ft 258 kts 261°
2026-04-23 13:41 51.55585 -0.67071 6274 ft 258 kts 260°
2026-04-23 13:42 51.55345 -0.69933 5765 ft 258 kts 261°
2026-04-23 13:42 51.55101 -0.72807 5266 ft 261 kts 260°
2026-04-23 13:42 51.54863 -0.75689 4751 ft 260 kts 261°
2026-04-23 13:42 51.54624 -0.78568 4263 ft 259 kts 261°
2026-04-23 13:43 51.54391 -0.81389 4029 ft 252 kts 261°
2026-04-23 13:43 51.54160 -0.84177 3914 ft 250 kts 261°
2026-04-23 13:43 51.53931 -0.86926 3509 ft 248 kts 261°
2026-04-23 13:43 51.53686 -0.89638 3101 ft 240 kts 260°
2026-04-23 13:44 51.53389 -0.92126 2998 ft 218 kts 246°
2026-04-23 13:44 51.52530 -0.93915 3003 ft 195 kts 207°
2026-04-23 13:44 51.51274 -0.94428 3003 ft 183 kts 166°
2026-04-23 13:44 51.50198 -0.93575 2999 ft 170 kts 131°
2026-04-23 13:45 51.49453 -0.92109 2998 ft 169 kts 122°
2026-04-23 13:45 51.48784 -0.90547 2992 ft 170 kts 121°
2026-04-23 13:45 51.48133 -0.88963 2998 ft 170 kts 117°
2026-04-23 13:45 51.47731 -0.87400 2986 ft 169 kts 104°
2026-04-23 13:46 51.47541 -0.85540 2996 ft 168 kts 93°
2026-04-23 13:46 51.47515 -0.83671 3002 ft 167 kts 90°
2026-04-23 13:46 51.47533 -0.81806 2982 ft 166 kts 90°
2026-04-23 13:46 51.47546 -0.80049 3003 ft 166 kts 89°
2026-04-23 13:47 51.47550 -0.78187 2988 ft 167 kts 90°
2026-04-23 13:47 51.47553 -0.76354 3010 ft 158 kts 91°
2026-04-23 13:47 51.47559 -0.74625 3009 ft 154 kts 90°
2026-04-23 13:47 51.47567 -0.72884 3003 ft 157 kts 90°
2026-04-23 13:48 51.47579 -0.71141 2911 ft 157 kts 89°
2026-04-23 13:48 51.47597 -0.69416 2708 ft 156 kts 89°
2026-04-23 13:48 51.47606 -0.67683 2474 ft 155 kts 89°
2026-04-23 13:48 51.47617 -0.65946 2263 ft 157 kts 89°
2026-04-23 13:49 51.47628 -0.64201 2036 ft 155 kts 88°
2026-04-23 13:49 51.47640 -0.62509 1832 ft 151 kts 88°
2026-04-23 13:49 51.47650 -0.61002 1641 ft 135 kts 89°
2026-04-23 13:49 51.47659 -0.59495 1475 ft 142 kts 88°
2026-04-23 13:50 51.47670 -0.57938 1270 ft 133 kts 89°
2026-04-23 13:50 51.47679 -0.56529 1100 ft 121 kts 88°
2026-04-23 13:50 51.47686 -0.55315 950 ft 112 kts 88°
2026-04-23 13:50 51.47695 -0.54132 813 ft 113 kts 87°
2026-04-23 13:51 51.47704 -0.52859 656 ft 118 kts 88°
2026-04-23 13:51 51.47737 -0.51540 427 ft 114 kts 88°
2026-04-23 13:51 51.47754 -0.50256 345 ft 118 kts 90°
2026-04-23 13:51 51.47754 -0.48981 171 ft 109 kts 89°
2026-04-23 13:52 51.47754 -0.47866 88 ft 83 kts 89°
2026-04-23 13:52 51.47738 -0.47376 90 ft 18 kts 101°
2026-04-23 13:52 51.47735 -0.47201 91 ft 16 kts 105°
2026-04-23 13:52 51.47664 -0.47066 94 ft 13 kts 145°
2026-04-23 13:53 51.47656 -0.47057 92 ft 0 kts 143°